TimeCST,TemperatureF,Dew PointF,Humidity,Sea Level PressureIn,VisibilityMPH,Wind Direction,Wind SpeedMPH,Gust SpeedMPH,PrecipitationIn,Events,Conditions,WindDirDegrees,DateUTC
12:52 AM,64.0,55.0,73,30.18,10.0,SE,8.1,-,N/A,,Overcast,130,2013-02-02 06:52:00
1:52 AM,63.0,55.9,78,30.18,10.0,SE,5.8,-,N/A,,Overcast,140,2013-02-02 07:52:00
2:52 AM,64.0,55.0,73,30.16,10.0,SE,8.1,-,N/A,,Overcast,130,2013-02-02 08:52:00
3:52 AM,63.0,55.0,75,30.16,10.0,SE,4.6,-,N/A,,Overcast,130,2013-02-02 09:52:00
4:52 AM,61.0,55.0,81,30.16,10.0,SE,4.6,-,N/A,,Mostly Cloudy,140,2013-02-02 10:52:00
5:52 AM,62.1,55.9,80,30.16,10.0,ESE,3.5,-,N/A,,Mostly Cloudy,110,2013-02-02 11:52:00
6:52 AM,62.1,57.0,84,30.19,10.0,East,3.5,-,N/A,,Overcast,100,2013-02-02 12:52:00
7:52 AM,62.1,57.0,84,30.20,10.0,Calm,Calm,-,N/A,,Overcast,0,2013-02-02 13:52:00
8:24 AM,64.4,57.2,77,30.20,10.0,Calm,Calm,-,N/A,,Mostly Cloudy,0,2013-02-02 14:24:00
8:32 AM,64.4,57.2,77,30.21,10.0,Calm,Calm,-,N/A,,Mostly Cloudy,0,2013-02-02 14:32:00
8:41 AM,64.4,57.2,77,30.21,10.0,SSE,3.5,-,N/A,,Mostly Cloudy,150,2013-02-02 14:41:00
8:52 AM,66.0,59.0,78,30.21,10.0,SE,3.5,-,N/A,,Mostly Cloudy,130,2013-02-02 14:52:00
9:52 AM,70.0,59.0,68,30.22,10.0,SSE,6.9,-,N/A,,Mostly Cloudy,160,2013-02-02 15:52:00
10:52 AM,73.0,59.0,61,30.22,10.0,South,10.4,-,N/A,,Scattered Clouds,180,2013-02-02 16:52:00
12:52 PM,75.0,59.0,57,30.17,10.0,Variable,5.8,-,N/A,,Mostly Cloudy,0,2013-02-02 18:52:00
1:52 PM,78.1,57.9,50,30.14,10.0,WSW,5.8,-,N/A,,Partly Cloudy,240,2013-02-02 19:52:00
2:52 PM,79.0,57.0,47,30.13,10.0,WSW,5.8,-,N/A,,Scattered Clouds,240,2013-02-02 20:52:00
2:55 PM,78.8,57.2,47,30.13,10.0,SW,6.9,-,N/A,,Mostly Cloudy,220,2013-02-02 20:55:00
3:52 PM,75.9,60.1,58,30.12,10.0,ESE,17.3,24.2,N/A,,Mostly Cloudy,120,2013-02-02 21:52:00
4:52 PM,73.9,60.1,62,30.13,10.0,ESE,19.6,-,N/A,,Clear,120,2013-02-02 22:52:00
5:52 PM,71.1,60.1,68,30.14,10.0,ESE,16.1,23.0,N/A,,Scattered Clouds,110,2013-02-02 23:52:00
6:52 PM,68.0,59.0,73,30.17,10.0,ESE,11.5,-,N/A,,Partly Cloudy,110,2013-02-03 00:52:00
7:52 PM,66.0,57.9,75,30.19,10.0,ESE,9.2,-,N/A,,Clear,110,2013-02-03 01:52:00
8:52 PM,64.0,57.9,80,30.22,10.0,East,6.9,-,N/A,,Scattered Clouds,90,2013-02-03 02:52:00
9:52 PM,62.1,57.9,86,30.23,10.0,East,4.6,-,N/A,,Clear,100,2013-02-03 03:52:00
10:52 PM,59.0,57.0,93,30.23,10.0,ESE,3.5,-,N/A,,Mostly Cloudy,120,2013-02-03 04:52:00
11:52 PM,61.0,57.0,87,30.23,10.0,ESE,4.6,-,N/A,,Clear,120,2013-02-03 05:52:00